Temperature
8 8 8 9 9 9 9 9 9 9 9 9 9 9 10 9 10 10 10 10 9 9 9 9 9 9 9 9 9 9 9 9 9 9 10 10 10 10 10 10 10 10 10
7 8 8 8 8 8 8 8 8 8 8 9 9 9 9 9 9 9 9 9 9 9 9 9 9 9 9 9 9 9 9 9 9 8 8 9 9 9 10 10 10 10 10
7 7 7 8 8 8 8 8 8 8 8 8 8 8 8 8 8 8 8 8 8 8 8 8 8 8 8 8 8 8 8 8 8 8 7 7 7 8 9 9 9 9 9
7 7 7 7 7 7 7 7 7 7 7 7 7 7 7 7 8 8 8 8 8 8 8 8 8 8 8 8 8 8 7 7 7 7 7 7 7 7 7 8 8 8 9
6 6 7 7 7 7 7 7 7 7 7 7 7 7 7 7 7 7 7 7 7 7 7 7 7 7 7 7 7 7 7 7 7 7 7 7 6 6 6 7 7 8 8
6 6 6 6 6 6 6 6 6 6 6 6 6 6 6 6 6 6 6 7 7 7 7 7 7 7 7 7 7 7 7 6 6 6 6 6 6 6 6 6 6 7 7
5 5 5 5 6 6 6 6 6 6 6 6 6 6 6 6 6 6 6 6 6 6 6 6 6 6 6 6 6 6 6 6 6 6 6 6 6 6 6 5 5 5 6
5 5 5 5 5 5 5 5 5 5 5 5 5 5 5 5 5 5 5 5 5 6 6 6 6 6 6 6 6 6 5 5 5 5 5 5 5 5 5 5 5 5 5
4 4 4 4 4 4 5 4 4 4 4 4 4 4 4 4 4 4 4 4 4 5 5 5 5 5 5 5 5 5 5 5 5 5 5 5 5 5 5 4 4 4 4
4 4 4 4 4 4 4 4 4 4 4 4 4 4 4 4 4 4 4 4 4 4 4 4 4 5 5 5 5 5 5 4 5 4 4 4 4 4 4 4 4 4 4
3 3 3 3 3 3 3 3 3 3 3 3 3 3 3 3 3 3 3 3 3 3 3 4 4 4 4 4 4 4 4 4 4 4 4 4 4 4 4 3 3 3 3
2 2 2 2 2 2 2 2 2 2 3 3 3 2 2 2 2 2 2 2 3 3 3 3 3 3 3 3 3 3 3 3 3 3 3 3 3 3 3 3 3 3 3
1 1 1 1 1 1 2 2 2 2 2 2 2 2 2 2 2 2 2 2 2 2 2 2 2 2 2 2 3 2 2 3 3 3 3 3 3 3 3 3 2 2 2
1 1 1 1 1 1 1 1 1 1 1 1 1 1 1 1 1 1 1 1 1 1 1 1 2 2 2 2 2 2 2 2 2 2 2 2 2 2 2 2 2 2 2
0 0 0 0 0 0 0 0 0 0 0 0 0 0 0 0 0 0 0 1 1 1 1 1 1 1 1 1 1 1 1 1 1 1 1 1 1 1 1 1 1 1 1
-0 -0 -0 -0 -0 -0 -0 -0 -0 -1 -0 -0 -0 -0 -0 -0 -0 -0 -0 -0 -0 0 0 0 0 0 0 0 0 0 0 0 0 0 1 1 1 1 1 1 1 1 1
-0 -1 -0 -0 -1 -1 -1 -1 -1 -1 -1 -1 -1 -1 -1 -1 -1 -1 -1 -1 -1 -1 -1 -1 -0 -0 -0 -0 -0 -0 -0 -0 -0 -0 -0 -0 0 0 0 0 0 0 -0
-0 -1 -1 -1 -1 -1 -1 -1 -1 -2 -2 -2 -2 -2 -2 -1 -2 -2 -1 -1 -1 -1 -1 -1 -1 -1 -1 -1 -1 -1 -1 -1 -1 -1 -1 -1 -1 -0 -1 -1 -1 -1 -0
-1 -1 -1 -1 -1 -1 -1 -2 -2 -2 -2 -2 -2 -2 -2 -2 -2 -2 -2 -2 -2 -2 -2 -2 -2 -2 -2 -2 -2 -2 -2 -2 -2 -2 -2 -1 -1 -1 -1 -1 -1 -1 -1
-1 -1 -1 -1 -1 -2 -2 -2 -2 -2 -2 -2 -2 -3 -3 -3 -3 -2 -2 -2 -2 -2 -2 -2 -2 -2 -2 -2 -2 -2 -2 -2 -2 -2 -2 -2 -2 -2 -2 -2 -2 -2 -1
-1 -2 -2 -2 -2 -2 -2 -2 -2 -2 -3 -3 -3 -3 -3 -3 -3 -3 -3 -3 -3 -3 -3 -3 -3 -3 -3 -3 -3 -3 -3 -3 -3 -3 -3 -3 -3 -2 -2 -2 -2 -2 -2
-2 -2 -2 -2 -2 -2 -3 -3 -3 -3 -3 -3 -3 -3 -3 -4 -4 -4 -4 -4 -4 -4 -4 -3 -3 -3 -3 -3 -3 -3 -3 -3 -3 -3 -3 -3 -3 -3 -3 -3 -3 -3 -3
-2 -2 -3 -3 -3 -3 -3 -3 -3 -3 -3 -3 -3 -4 -4 -4 -4 -4 -4 -4 -4 -4 -4 -4 -4 -4 -4 -4 -4 -4 -4 -4 -4 -4 -4 -3 -3 -3 -3 -3 -3 -3 -3
-3 -3 -3 -3 -3 -3 -4 -4 -4 -4 -4 -4 -4 -4 -4 -4 -4 -5 -5 -5 -5 -5 -5 -5 -5 -5 -4 -4 -4 -4 -4 -4 -4 -4 -4 -4 -4 -4 -4 -3 -3 -3 -3
-4 -4 -4 -4 -4 -4 -4 -4 -4 -4 -4 -4 -4 -5 -5 -5 -5 -5 -5 -5 -5 -5 -5 -5 -5 -5 -5 -5 -5 -5 -5 -5 -5 -5 -4 -4 -4 -4 -4 -4 -4 -4 -4
-4 -4 -4 -4 -4 -4 -4 -4 -5 -5 -5 -5 -5 -5 -5 -5 -6 -6 -5 -5 -6 -6 -6 -6 -6 -6 -5 -5 -5 -5 -5 -5 -5 -5 -5 -5 -5 -5 -5 -5 -4 -4 -4
Wind_Speed
3 1 1 1 2 2 2 2 2 2 1 0 0 1 1 1 1 1 1 1 1 1 1 1 2 2 2 2 2 1 1 1 0 0 2 2 2 2 2 2 2 3 3
2 1 1 1 1 1 1 2 2 2 2 1 1 1 1 1 1 1 1 1 1 1 2 2 2 2 2 2 2 2 1 1 1 1 0 2 3 2 2 2 2 2 2
4 3 2 1 0 1 1 1 1 2 2 2 1 2 1 1 1 1 1 2 2 2 2 2 2 3 3 3 3 3 3 2 1 1 1 1 3 3 2 2 2 2 2
4 4 3 2 1 2 1 2 1 1 1 1 1 0 0 1 2 2 2 3 2 2 2 2 3 3 3 3 4 3 3 3 3 2 1 2 1 1 2 2 2 2 3
5 4 4 3 2 1 1 2 2 2 2 2 1 1 1 1 1 1 1 2 2 2 2 2 2 3 3 4 4 3 3 3 3 3 1 1 1 2 2 4 3 3 3
4 3 2 1 0 1 1 2 2 2 2 2 1 1 1 1 1 1 2 2 2 2 2 2 2 3 3 4 4 4 5 4 4 3 3 3 2 2 2 4 4 4 3
2 2 1 1 1 1 1 1 1 2 3 2 2 1 1 1 2 2 2 2 2 2 3 3 3 3 3 3 3 4 4 4 5 5 4 4 3 2 2 3 4 4 4
2 2 2 2 1 1 1 1 1 2 2 3 3 2 1 1 1 2 2 2 3 3 4 3 3 3 3 3 2 2 4 3 4 5 4 4 3 3 3 3 3 4 4
2 2 1 1 1 1 1 1 1 2 3 3 3 2 2 1 2 2 2 2 3 3 3 3 3 3 3 3 3 2 3 3 4 4 4 4 3 3 3 3 3 4 5
1 1 1 1 1 1 1 1 1 1 2 2 2 2 3 2 2 2 2 3 3 3 3 3 3 3 3 3 3 3 3 3 4 4 4 5 4 4 3 4 4 4 6
2 1 1 1 1 2 2 2 2 2 2 3 3 3 3 3 2 2 2 3 3 3 3 3 2 3 3 3 3 3 3 4 4 4 5 5 5 4 4 4 4 5 5
1 0 1 1 1 2 2 2 3 3 3 3 2 3 3 3 3 3 3 3 3 3 3 2 2 3 2 3 3 4 4 4 5 5 5 5 4 5 5 5 5 5 5
0 1 1 1 1 2 2 3 3 3 3 3 2 3 3 3 3 3 3 3 3 3 3 2 2 3 3 3 3 4 4 5 5 5 6 6 5 6 5 5 5 5 5
0 0 1 1 2 2 2 3 3 3 3 3 3 3 3 3 3 3 3 3 3 3 3 3 3 3 3 3 3 3 4 4 4 4 5 5 5 6 5 5 5 5 5
2 2 2 2 2 2 2 3 3 3 3 3 3 3 3 3 3 3 3 3 3 4 3 3 3 3 3 3 3 4 4 4 4 4 4 4 5 6 5 4 4 4 4
3 3 3 2 2 2 2 3 3 3 3 3 4 4 4 4 4 4 3 3 4 4 3 3 3 3 3 5 6 4 3 3 4 4 4 4 5 6 7 8 7 5 5
4 4 4 3 3 3 2 3 3 3 3 3 4 4 4 4 4 4 4 4 4 4 4 4 4 4 5 6 6 6 4 3 4 4 4 5 5 6 4 6 8 7 8
4 4 3 3 3 2 2 2 2 2 3 3 4 4 4 4 4 4 4 4 4 4 4 4 4 5 5 7 6 7 4 4 4 4 5 5 5 5 5 4 5 5 6
4 4 3 3 2 2 2 1 2 2 3 4 4 4 4 4 4 4 4 4 4 4 4 4 4 5 6 7 7 6 3 4 5 4 4 5 5 8 8 5 5 5 5
2 2 2 2 2 2 1 1 2 2 4 4 5 4 4 4 5 5 4 4 4 4 4 4 4 5 5 7 7 6 3 4 4 4 5 7 7 8 8 6 5 6 6
2 2 2 2 2 2 1 2 3 4 4 4 4 4 4 4 4 4 4 4 4 4 4 5 5 5 6 7 8 7 4 4 4 4 4 5 8 9 8 8 6 7 6
2 1 1 2 2 2 1 3 4 4 3 4 4 4 4 4 3 3 4 3 3 3 4 4 5 4 5 6 6 7 6 6 4 5 4 5 8 8 8 7 6 7 6
2 2 2 2 2 2 2 3 4 3 3 3 3 4 4 4 3 3 3 3 2 2 3 4 4 5 4 5 7 7 7 7 5 4 6 7 7 7 6 6 7 6 3
2 2 1 2 3 2 2 3 3 2 2 3 4 4 3 4 3 3 3 3 3 3 3 4 4 5 5 4 4 4 4 5 5 4 5 6 6 5 5 5 4 3 3
2 2 2 3 4 3 3 3 3 2 2 3 3 3 3 4 4 3 3 3 4 4 4 4 4 5 5 6 7 5 4 3 3 4 3 2 3 3 3 3 3 2 2
2 2 2 3 3 3 3 3 3 2 2 3 3 3 3 3 3 3 4 5 5 7 7 7 7 6 7 9 8 8 7 7 5 3 2 3 3 3 3 3 3 3 3
Wind_Direction
276 316 20 36 48 33 34 28 19 7 35 17 214 209 239 258 265 300 298 266 239 213 178 185 187 188 196 203 195 188 176 195 139 81 320 312 280 268 262 257 238 228 216
276 279 309 35 53 19 11 14 7 353 355 341 293 236 229 230 248 318 334 302 256 225 202 189 206 209 198 191 193 181 183 199 157 146 101 316 318 302 274 260 245 249 230
228 242 245 266 3 341 324 325 332 347 349 353 21 22 36 31 334 308 302 327 314 262 230 219 213 216 200 200 206 201 193 209 228 185 163 193 251 298 296 271 258 253 241
229 233 239 246 250 278 318 329 327 347 356 12 32 46 224 262 271 288 293 316 323 311 278 245 220 219 216 211 211 208 210 192 213 236 237 224 196 229 297 298 274 265 258
221 225 232 233 238 267 329 339 342 351 2 17 1 267 258 246 288 321 316 320 312 307 301 278 241 233 228 222 218 214 216 208 207 206 206 222 242 223 235 276 292 284 255
228 235 240 222 306 2 14 11 9 353 355 4 354 304 247 244 316 318 307 308 305 293 285 285 264 252 246 232 223 218 215 218 218 213 203 207 207 213 217 251 273 279 274
220 229 240 255 315 2 7 3 12 347 345 347 335 306 267 236 239 260 269 295 300 287 275 272 258 254 257 253 233 216 217 216 216 218 223 223 227 216 219 244 267 275 284
233 234 234 236 255 281 329 356 359 345 344 343 331 322 305 286 274 275 275 276 282 282 283 271 262 261 257 258 248 230 228 223 217 223 223 227 234 225 222 225 241 277 281
248 247 263 268 255 263 282 292 333 349 341 337 334 322 313 298 291 297 295 291 288 296 298 282 261 254 249 244 235 234 240 235 226 226 222 226 232 230 231 232 226 233 265
300 311 336 346 331 310 311 337 346 319 319 329 325 324 316 307 302 307 306 301 298 299 296 295 272 252 244 237 229 236 240 240 240 234 228 230 229 229 229 233 239 237 245
293 314 341 355 354 360 2 4 358 352 344 336 327 325 324 329 328 313 303 301 299 302 295 285 282 263 243 230 227 238 240 241 247 244 237 240 234 231 233 234 235 237 240
275 303 4 3 1 357 358 2 355 349 337 331 336 333 329 337 335 323 319 312 302 300 297 293 285 278 268 246 235 242 246 242 247 250 247 250 247 239 236 234 235 237 234
21 42 26 353 341 344 349 350 349 344 342 344 346 344 338 336 328 322 322 321 312 309 308 297 285 282 277 267 255 247 249 246 246 247 246 250 246 249 247 240 239 241 245
260 280 312 314 323 330 337 340 341 343 345 351 348 338 330 325 318 318 323 322 319 312 308 301 291 283 277 271 261 255 257 254 253 251 251 250 244 247 246 244 242 242 245
273 274 288 302 313 324 333 335 336 340 342 344 341 330 327 326 325 323 320 320 320 312 309 309 306 305 295 278 272 259 256 254 257 258 257 253 258 260 259 260 252 244 246
263 272 283 289 295 301 312 325 327 329 336 333 323 324 329 328 324 320 319 321 319 312 313 308 304 301 291 292 291 282 267 263 263 268 269 266 265 271 276 276 272 257 248
256 255 262 266 273 279 290 294 302 318 326 322 318 321 323 320 317 317 321 317 313 314 309 304 300 292 289 292 291 287 274 267 269 272 277 282 282 284 273 275 278 275 271
253 255 259 267 271 271 287 292 302 310 312 314 312 315 315 313 312 313 310 310 310 310 306 303 300 297 293 294 292 291 283 270 266 265 263 268 277 276 274 268 270 270 271
247 248 251 255 263 270 277 294 304 304 307 305 303 304 306 305 306 305 304 306 308 309 305 302 307 303 300 299 295 292 282 275 274 270 268 269 268 274 278 271 268 275 278
262 257 260 261 263 273 261 254 278 290 290 293 295 298 299 296 296 297 300 303 301 302 307 307 307 304 303 306 303 293 271 275 279 281 277 280 277 277 277 265 260 268 274
275 250 235 250 254 260 248 259 272 276 285 295 300 301 299 294 293 299 300 300 304 309 311 309 309 308 307 310 311 302 282 273 278 281 283 282 287 284 278 273 260 262 273
300 279 261 278 277 251 233 264 273 283 293 296 299 300 301 300 306 307 307 305 304 309 309 309 312 311 309 312 310 311 307 298 283 283 283 285 290 287 286 281 273 277 279
289 291 268 286 295 279 243 258 280 292 301 306 305 305 308 308 304 296 298 304 301 298 304 308 310 311 313 310 311 311 309 307 298 291 299 298 297 292 286 285 286 285 274
281 277 271 280 292 289 283 270 283 288 298 303 305 306 310 311 307 300 294 293 290 290 294 298 299 301 304 304 303 301 302 306 305 301 305 312 315 308 299 296 294 279 266
282 267 255 270 280 289 296 300 295 289 292 298 301 307 309 305 305 304 291 287 273 271 281 281 282 291 295 300 307 306 301 299 293 305 306 312 315 312 305 302 297 284 280
272 278 277 281 286 291 296 298 291 279 284 299 304 304 304 303 303 305 309 301 290 293 292 285 286 287 293 302 305 306 307 306 303 303 301 301 304 300 298 296 298 296 286
Height
1499 1500 1501 1501 1502 1502 1502 1502 1503 1504 1505 1506 1506 1507 1508 1509 1510 1511 1511 1512 1512 1513 1514 1515 1516 1517 1517 1517 1518 1519 1520 1521 1521 1522 1522 1522 1523 1523 1524 1525 1526 1527 1528
1496 1497 1498 1498 1499 1499 1500 1500 1500 1501 1501 1502 1503 1504 1504 1505 1506 1507 1508 1508 1509 1510 1510 1511 1512 1513 1514 1514 1515 1516 1516 1517 1518 1519 1518 1518 1520 1519 1520 1520 1521 1522 1523
1493 1494 1495 1495 1496 1497 1498 1498 1498 1498 1498 1499 1500 1500 1501 1502 1503 1503 1504 1504 1505 1506 1507 1508 1508 1509 1510 1510 1511 1512 1513 1514 1515 1516 1517 1517 1515 1515 1516 1516 1517 1518 1519
1490 1491 1492 1493 1494 1495 1495 1496 1496 1496 1496 1496 1497 1497 1497 1497 1498 1499 1500 1501 1501 1502 1503 1504 1505 1505 1506 1507 1507 1508 1509 1510 1511 1512 1513 1514 1514 1514 1512 1512 1513 1514 1514
1487 1488 1489 1490 1491 1492 1493 1493 1493 1493 1493 1493 1494 1494 1494 1494 1495 1495 1496 1497 1498 1498 1499 1500 1500 1501 1502 1502 1503 1504 1505 1506 1506 1507 1508 1509 1510 1510 1510 1508 1508 1509 1510
1484 1486 1487 1488 1488 1489 1490 1490 1490 1490 1491 1491 1491 1491 1491 1491 1491 1491 1492 1492 1493 1494 1495 1495 1496 1496 1497 1498 1499 1499 1500 1501 1502 1502 1503 1504 1505 1505 1506 1505 1504 1504 1504
1482 1483 1483 1484 1485 1486 1487 1487 1487 1487 1488 1488 1488 1488 1488 1488 1488 1488 1488 1488 1489 1490 1490 1491 1491 1492 1493 1493 1494 1495 1495 1496 1497 1498 1498 1499 1500 1501 1502 1502 1501 1500 1499
1479 1480 1481 1481 1482 1483 1484 1484 1484 1484 1485 1485 1485 1485 1485 1485 1484 1484 1484 1484 1485 1485 1486 1486 1487 1487 1488 1488 1489 1489 1490 1491 1492 1493 1494 1494 1495 1496 1497 1498 1498 1496 1494
1476 1477 1478 1479 1479 1480 1481 1481 1481 1481 1482 1482 1482 1482 1482 1482 1481 1481 1481 1481 1480 1481 1481 1481 1482 1482 1483 1483 1484 1484 1485 1486 1487 1488 1489 1489 1490 1491 1492 1493 1493 1494 1491
1475 1475 1476 1476 1477 1478 1478 1478 1478 1478 1478 1479 1479 1479 1479 1478 1478 1477 1477 1477 1477 1476 1476 1476 1477 1477 1478 1478 1479 1479 1480 1481 1482 1483 1483 1484 1485 1486 1486 1487 1487 1488 1487
1473 1474 1474 1474 1475 1475 1475 1475 1475 1475 1476 1476 1475 1475 1475 1475 1474 1474 1473 1473 1473 1472 1472 1471 1472 1472 1472 1473 1474 1474 1475 1475 1476 1478 1478 1479 1480 1480 1481 1481 1481 1482 1482
1472 1472 1473 1473 1473 1473 1473 1473 1473 1473 1473 1473 1472 1472 1472 1471 1471 1470 1470 1469 1469 1469 1468 1467 1467 1468 1468 1468 1469 1469 1470 1470 1471 1472 1473 1473 1474 1474 1475 1475 1475 1475 1476
1471 1471 1471 1471 1471 1471 1471 1471 1471 1471 1470 1470 1469 1469 1468 1468 1467 1467 1466 1465 1465 1464 1464 1464 1463 1463 1464 1464 1464 1464 1465 1465 1466 1466 1467 1467 1468 1468 1469 1469 1469 1469 1469
1470 1470 1470 1470 1470 1470 1469 1469 1468 1468 1467 1467 1466 1466 1465 1464 1463 1463 1462 1461 1461 1460 1460 1460 1459 1459 1459 1460 1460 1460 1460 1460 1460 1461 1461 1461 1462 1462 1462 1462 1463 1463 1463
1468 1468 1468 1467 1467 1467 1467 1466 1466 1465 1465 1464 1463 1462 1462 1461 1460 1459 1458 1458 1457 1457 1456 1456 1456 1455 1455 1455 1455 1456 1456 1455 1455 1456 1456 1456 1456 1456 1456 1456 1456 1457 1457
1466 1466 1466 1465 1465 1464 1464 1463 1463 1462 1462 1461 1460 1460 1459 1458 1457 1456 1455 1455 1454 1453 1453 1452 1452 1451 1451 1451 1451 1451 1451 1451 1450 1450 1450 1450 1450 1451 1451 1451 1451 1452 1451
1464 1464 1463 1463 1463 1462 1461 1460 1460 1460 1459 1458 1458 1457 1456 1455 1454 1453 1452 1451 1451 1450 1449 1449 1448 1448 1447 1447 1447 1447 1447 1446 1446 1445 1445 1445 1445 1445 1445 1445 1446 1446 1446
1461 1461 1461 1460 1460 1460 1459 1458 1458 1457 1456 1456 1455 1454 1453 1452 1451 1450 1449 1448 1448 1447 1446 1445 1445 1444 1444 1444 1443 1443 1442 1442 1441 1441 1440 1439 1439 1440 1440 1440 1439 1439 1439
1459 1459 1458 1458 1458 1457 1456 1456 1455 1454 1454 1453 1452 1451 1450 1449 1448 1447 1447 1446 1445 1444 1443 1442 1442 1441 1441 1440 1440 1439 1438 1437 1436 1436 1435 1435 1434 1434 1435 1435 1434 1434 1433
1456 1456 1456 1455 1455 1454 1454 1453 1452 1451 1451 1450 1449 1449 1448 1447 1446 1445 1444 1443 1442 1441 1440 1439 1439 1438 1437 1436 1436 1435 1434 1433 1432 1431 1430 1430 1429 1430 1430 1430 1429 1428 1428
1454 1453 1452 1452 1452 1451 1451 1450 1449 1449 1448 1447 1447 1446 1445 1444 1443 1442 1441 1440 1439 1438 1437 1436 1435 1434 1433 1432 1432 1431 1430 1429 1427 1426 1425 1425 1425 1425 1425 1425 1424 1423 1424
1451 1450 1449 1449 1449 1448 1447 1446 1446 1446 1445 1444 1444 1443 1442 1441 1440 1439 1438 1437 1436 1434 1433 1432 1431 1431 1430 1429 1427 1427 1426 1425 1423 1422 1421 1420 1420 1420 1420 1420 1420 1419 1419
1448 1447 1446 1446 1445 1445 1444 1443 1443 1443 1442 1441 1440 1439 1438 1438 1437 1436 1434 1433 1432 1431 1430 1429 1428 1427 1426 1425 1424 1423 1422 1421 1419 1418 1417 1416 1416 1415 1415 1415 1415 1415 1414
1445 1444 1443 1443 1442 1442 1442 1441 1440 1439 1438 1437 1437 1436 1435 1434 1433 1432 1431 1430 1429 1428 1427 1426 1424 1423 1422 1421 1420 1419 1417 1416 1415 1414 1413 1412 1412 1411 1411 1411 1410 1410 1410
1442 1442 1441 1440 1439 1439 1439 1438 1437 1436 1435 1434 1434 1433 1432 1431 1430 1429 1428 1427 1426 1426 1425 1423 1422 1420 1419 1418 1417 1416 1414 1413 1412 1411 1410 1409 1408 1407 1407 1406 1406 1406 1406
1439 1439 1438 1437 1437 1436 1436 1435 1434 1433 1432 1431 1430 1429 1429 1427 1427 1426 1425 1424 1423 1422 1421 1420 1419 1417 1416 1415 1413 1412 1411 1410 1409 1408 1406 1405 1405 1404 1403 1403 1403 1403 1402